#timestamp,LO_Frequency,Hit,StdDev 
1555495215.2,286046997.4,N
1555495235.1,286046997.9,N
1555495236.0,286046997.9,N
1555495255.8,286046999.5,N
1555495275.6,286046996.7,N
1555495295.5,286046997.2,N
1555495315.3,286046999.0,N
1555495335.2,286046996.5,N
1555495355.9,286046997.2,N
1555495375.7,286046999.6,N
1555495395.6,286046996.5,N
1555495415.4,286046996.5,N
1555495435.2,286046998.5,N
1555495455.1,286046996.7,N
1555495456.0,286046996.7,N
1555495475.8,286046996.8,N
1555495495.7,286046999.4,N
1555495515.5,286046998.9,N
1555495535.3,286047001.0,N
1555495555.2,286046998.1,N
1555495575.9,286046999.1,N
1555495595.7,286047001.0,N
1555495615.6,286046999.4,N
1555495635.4,286046998.2,N
1555495655.2,286046998.6,N
1555495675.1,286046999.4,N
1555495676.0,286046999.4,N
1555495695.8,286046996.9,N
1555495715.7,286046997.4,N
1555495735.5,286046996.7,N
1555495755.3,286046998.0,N
1555495775.2,286046995.1,Y
1555495795.0,286046998.3,P
1555495795.9,286046998.3,P
1555495815.8,286046999.0,P
1555495835.6,286046998.9,Y
1555495855.4,286047000.5,P
1555495875.3,286047002.2,N
1555495895.1,286046999.8,N
1555495915.9,286047001.0,N
1555495935.7,286047002.8,N
1555495955.5,286047001.5,N
1555495975.4,286047002.4,N
1555495995.2,286047000.8,N
1555496015.0,286046999.7,N
1555496015.9,286046999.7,N
1555496035.8,286047002.5,N
1555496055.6,286047001.6,N
1555496075.5,286047003.4,N
1555496095.3,286047005.7,Y
1555496115.1,286047001.4,P
1555496135.9,286046999.9,N
1555496155.7,286047000.8,N
1555496175.5,286047000.0,N
1555496195.4,286046998.3,N
1555496215.2,286046998.6,N
1555496235.1,286047000.2,N
1555496236.0,286047000.2,N
1555496255.8,286047001.6,N
1555496275.6,286047001.3,N
1555496295.5,286047005.5,Y
1555496315.3,286047006.0,P
1555496335.1,286047002.9,N
1555496355.9,286047004.1,N
1555496375.7,286047002.6,N
1555496395.6,286047001.9,N
1555496415.4,286047004.1,N
1555496435.2,286047003.1,N
1555496455.1,286047006.0,Y
1555496456.0,286047006.0,P
1555496475.8,286047000.9,N
1555496495.7,286046998.2,N
1555496515.5,286046998.3,N
1555496535.3,286047000.9,N
1555496555.2,286046998.2,N
1555496575.9,286047000.7,N
1555496595.7,286047000.6,N
1555496615.6,286047000.6,N
1555496635.4,286047000.4,N
1555496655.3,286046998.3,N
1555496675.1,286046999.2,N
1555496676.0,286046999.2,N
1555496695.8,286046996.7,N
1555496715.6,286046997.4,N
1555496735.4,286046997.0,N
1555496755.3,286046996.5,N
1555496775.1,286046997.6,N
1555496795.9,286046995.1,N
1555496815.7,286046995.2,N
1555496835.5,286046997.1,N
1555496855.4,286046999.4,N
1555496875.2,286046996.8,N
1555496895.0,286046997.3,N
1555496895.9,286046997.3,N
1555496915.8,286046998.0,N
1555496935.6,286046997.6,N
1555496955.5,286046994.9,N
1555496975.3,286046996.8,N
1555496995.1,286046997.3,N
1555497015.9,286046995.0,N
1555497035.7,286046997.5,N
1555497055.6,286046995.4,N
1555497075.4,286046997.9,N
1555497095.2,286046996.2,N
1555497115.1,286046993.4,Y
1555497116.0,286046993.4,P
1555497135.8,286046994.9,N
1555497155.6,286046997.2,N
1555497175.5,286046997.7,N
1555497195.3,286046995.0,N
1555497215.2,286046996.5,N
1555497235.9,286046997.5,N
1555497255.7,286046997.6,N
1555497275.6,286046999.4,N
1555497295.4,286046997.0,N
1555497315.3,286046997.0,N
1555497335.1,286046997.5,N
1555497336.0,286046997.5,N
1555497355.8,286046997.0,N
1555497375.7,286046996.5,N
1555497395.5,286046999.0,N
1555497415.3,286046996.7,N
1555497435.2,286046997.3,N
1555497455.0,286046995.0,Y
1555497455.9,286046995.0,P
1555497475.8,286046998.8,N
1555497495.6,286046996.6,N
1555497515.4,286046999.2,N
1555497535.3,286046996.6,N
1555497555.1,286046996.6,N
1555497575.9,286046997.7,N
1555497595.7,286046997.8,N
1555497615.5,286046998.0,N
1555497635.4,286046997.6,N
1555497655.2,286046997.3,N
1555497675.0,286046996.8,Y
1555497675.9,286046996.8,P
1555497695.8,286046998.7,P
1555497715.6,286046998.7,N
1555497735.5,286046998.4,N
1555497755.3,286046999.6,N
1555497775.1,286046999.6,N
1555497795.9,286046999.0,N
1555497815.7,286046996.5,Y
1555497835.5,286046998.9,P
1555497855.4,286046998.6,P
1555497875.2,286046998.9,P
1555497895.1,286046999.6,N
1555497896.0,286046999.6,N
1555497915.8,286046996.6,Y
1555497935.6,286047000.9,P
1555497955.5,286047000.3,N
1555497975.3,286046999.9,N
1555497995.1,286047000.4,N
1555498015.9,286046999.9,N
1555498035.7,286047000.0,N
1555498055.6,286047002.3,Y
1555498075.4,286047002.6,P
1555498095.2,286047002.0,N
1555498115.1,286047002.3,N
1555498116.0,286047002.3,N
1555498135.8,286047004.0,Y
1555498155.7,286047002.4,P
1555498175.5,286047002.1,P
1555498195.3,286047000.9,P
1555498215.2,286047000.9,N
1555498235.0,286047000.8,N
1555498235.9,286047000.8,N
1555498255.7,286046999.4,N
1555498275.6,286046999.1,N
1555498295.4,286047000.7,N
1555498315.3,286046998.4,N
1555498335.1,286046997.3,N
1555498336.0,286046997.3,N
1555498355.8,286046995.4,N
1555498375.7,286046998.0,N
1555498395.5,286046997.0,N
1555498415.3,286046999.5,N
1555498435.2,286046997.1,N
1555498455.0,286046997.4,N
1555498455.9,286046997.4,N
1555498475.8,286046995.6,N
1555498495.6,286046997.9,N
1555498515.4,286046997.8,N
1555498535.3,286046997.6,N
1555498555.1,286046995.9,N
1555498575.8,286046995.8,N
1555498595.7,286046995.9,N
1555498615.5,286046995.9,N
1555498635.4,286046995.9,N
1555498655.2,286046996.2,N
1555498675.0,286046996.0,N
1555498675.9,286046996.0,N
1555498695.8,286046994.1,Y
1555498715.6,286046995.7,P
1555498735.4,286046995.1,P
1555498755.3,286046997.7,N
1555498775.1,286046997.0,N
1555498795.9,286046996.6,Y
